Flight Track Log - Related Links

Times and Time Zones

All times are in EDT time to prevent confusion due to time zone crossing. See the ASQ2517 flight status page for this flight to view local times or setup timezone preferences in your user account.

Time Position Orientation Groundspeed Altitude Reporting Facility
EDT Latitude Longitude Course Direction KTS MPH feet Rate Location/Type
Mon 09:47:15 AM 32.4281 -93.8114 140° Southeast 174 200 1,000  Level Fort Worth Center
Mon 09:47:22 AM 32.4258 -93.8092 140° Southeast 164 189 1,200 2,328 Climbing Fort Worth Center
Mon 09:48:22 AM 32.3839 -93.7706 142° Southeast 189 217 3,600 2,272 Climbing Fort Worth Center
Mon 09:49:05 AM 32.3650 -93.8039 236° Southwest 202 232 5,100 2,066 Climbing Fort Worth Center
Mon 09:49:23 AM 32.3664 -93.8289 274° West 229 264 5,700 1,935 Climbing Fort Worth Center
Mon 09:50:07 AM 32.3708 -93.8858 275° West 253 291 7,100 2,066 Climbing Fort Worth Center
Mon 09:50:24 AM 32.3714 -93.9147 271° West 276 318 7,800 2,613 Climbing Fort Worth Center
Mon 09:51:09 AM 32.3761 -93.9811 275° West 267 307 9,800 2,400 Climbing Fort Worth Center
Mon 09:51:24 AM 32.3764 -94.0031 271° West 272 313 10,200 1,258 Climbing Fort Worth Center
Mon 09:52:11 AM 32.3803 -94.0733 274° West 281 323 11,100 1,156 Climbing Fort Worth Center
Mon 09:53:13 AM 32.3878 -94.1889 274° West 326 375 12,300 1,296 Climbing Fort Worth Center
Mon 09:54:16 AM 32.3944 -94.3014 274° West 340 391 13,800 1,296 Climbing Fort Worth Center
Mon 09:55:18 AM 32.4000 -94.4186 273° West 355 409 15,000 1,306 Climbing Fort Worth Center
Mon 09:56:20 AM 32.4075 -94.5467 274° West 359 413 16,500 1,306 Climbing Fort Worth Center
Mon 09:57:22 AM 32.4136 -94.6583 274° West 363 418 17,700 1,258 Climbing Fort Worth Center
Mon 09:58:24 AM 32.4139 -94.7767 270° West 363 418 19,100 1,403 Climbing Fort Worth Center
Mon 09:59:26 AM 32.3956 -94.8922 259° West 361 415 20,600 1,355 Climbing Fort Worth Center
Mon 10:00:28 AM 32.3775 -95.0103 260° West 357 411 21,900 677 Climbing Fort Worth Center
Mon 10:01:30 AM 32.3542 -95.1500 259° West 361 415 22,000 48 Climbing Fort Worth Center
Mon 10:02:32 AM 32.3614 -95.2847 274° West 391 450 22,000  Level Fort Worth Center
Mon 10:03:34 AM 32.3619 -95.4075 270° West 393 452 22,000  Level Fort Worth Center
Mon 10:04:37 AM 32.3650 -95.5369 272° West 394 453 22,000  Level Fort Worth Center
Mon 10:05:39 AM 32.3675 -95.6681 271° West 396 456 22,000  Level Fort Worth Center
Mon 10:06:41 AM 32.3694 -95.7983 271° West 396 456 22,000  Level Fort Worth Center
Mon 10:07:43 AM 32.3747 -95.9572 272° West 399 459 22,000 -194 Level Fort Worth Center
Mon 10:08:45 AM 32.3775 -96.0886 271° West 398 458 21,600 -1,500 Descending Fort Worth Center
Mon 10:09:47 AM 32.3789 -96.2361 271° West 409 471 18,900 -2,371 Descending Fort Worth Center
Mon 10:10:49 AM 32.3817 -96.3683 271° West 408 470 16,700 -2,032 Descending Fort Worth Center
Mon 10:11:51 AM 32.4161 -96.4869 289° West 402 463 14,700 -1,984 Descending Fort Worth Center
Mon 10:12:53 AM 32.4983 -96.5864 314° West 393 452 12,600 -1,776 Descending Fort Worth Center
Mon 10:13:56 AM 32.5739 -96.6769 315° West 387 445 11,000 -768 Descending Fort Worth Center
Mon 10:14:58 AM 32.6472 -96.7633 315° West 345 397 11,000  Level Fort Worth Center
Mon 10:16:00 AM 32.7031 -96.8306 315° West 273 314 11,000  Level Fort Worth Center
Mon 10:17:02 AM 32.7517 -96.8894 314° West 246 283 11,000 -726 Level Fort Worth Center
Mon 10:18:04 AM 32.8244 -96.9031 351° North 254 292 9,500 -1,500 Descending Fort Worth Center
Mon 10:19:06 AM 32.8964 -96.9036 360° North 254 292 7,900 -1,210 Descending Fort Worth Center
Mon 10:20:08 AM 32.9703 -96.9050 359° North 254 292 7,000 -435 Descending Fort Worth Center
Mon 10:21:10 AM 33.0414 -96.9067 359° North 254 292 7,000  Level Fort Worth Center
Mon 10:22:12 AM 33.1125 -96.9081 359° North 255 293 7,000 -432 Level Fort Worth Center
Mon 10:23:15 AM 33.1819 -96.9328 343° North 247 284 6,100 -480 Descending Fort Worth Center
Mon 10:24:17 AM 33.1953 -96.9981 284° West 209 241 6,000 -97 Descending Fort Worth Center
Mon 10:25:19 AM 33.1492 -97.0247 206° Southwest 191 220 5,900 -726 Descending Fort Worth Center
Mon 10:26:21 AM 33.1003 -97.0256 181° South 176 203 4,500 -1,210 Descending Fort Worth Center
Mon 10:27:23 AM 33.0594 -97.0264 181° South 139 160 3,400 -871 Descending Fort Worth Center
Mon 10:28:25 AM 33.0203 -97.0264 180° South 138 159 2,700 -726 Descending Fort Worth Center
Mon 10:29:27 AM 32.9828 -97.0267 180° South 138 159 1,900 -726 Descending Fort Worth Center
Mon 10:30:29 AM 32.9469 -97.0264 180° South 124 143 1,200 -677 Descending Fort Worth Center
Mon 10:31:31 AM 32.9092 -97.0258 179° South 127 146 500 -677 Descending Fort Worth Center

Login

Don't have an account? Register now (free) for customized features, flight alerts, and more!